Location: Hartman Creek State Park
(44.3257°N, 89.2134°W)
Time: 02:08:11
(UTC-05:00)

Terra - Visible Passes

Search period start: 30 April 2017 00:00
Search period end: 10 May 2017 00:00
Orbit: 702 x 703 km, 98.2° (Epoch: 28 April)

Date Brightness Start Highest point End Pass type
(mag) Time Alt. Az. Time Alt. Az. Time Alt. Az.
30 Apr 3.9 00:07:06 19° W 00:07:06 19° W 00:10:08 10° NW visible
30 Apr 3.6 21:32:31 14° E 21:34:14 17° ENE 21:37:14 10° NNE visible
30 Apr 2.0 23:11:24 63° WSW 23:11:28 63° WSW 23:16:13 10° NNW visible
01 May 2.5 22:15:42 35° E 22:16:37 39° ENE 22:21:01 10° N visible
01 May 3.5 23:54:35 24° W 23:54:35 24° W 23:58:21 10° NW visible
02 May 3.9 21:20:01 10° E 21:22:11 13° ENE 21:24:24 10° NNE visible
02 May 1.7 22:58:53 75° SSW 22:59:15 83° WSW 23:04:03 10° NNW visible
03 May 2.9 22:03:12 26° E 22:04:29 30° ENE 22:08:37 10° N visible
03 May 3.1 23:42:05 31° W 23:42:09 32° W 23:46:24 10° NNW visible
04 May 4.1 21:09:31 10° ENE 21:10:09 10° ENE 21:10:47 10° NE visible
04 May 1.7 22:46:23 64° SE 22:47:02 76° ENE 22:51:49 10° N visible
05 May 4.2 00:25:16 12° W 00:25:20 12° W 00:27:18 10° WNW visible
05 May 3.2 21:50:41 20° E 21:52:22 24° ENE 21:56:09 10° NNE visible
05 May 2.6 23:29:34 41° WSW 23:29:52 41° W 23:34:23 10° NNW visible
06 May 2.0 22:33:53 48° ESE 22:34:51 58° ENE 22:39:32 10° N visible
07 May 3.9 00:12:45 16° W 00:12:58 16° W 00:15:58 10° NW visible
07 May 3.5 21:38:11 15° E 21:40:16 19° ENE 21:43:35 10° NNE visible
07 May 2.1 23:17:04 51° SW 23:17:36 54° W 23:22:18 10° NNW visible
08 May 2.3 22:21:23 35° ESE 22:22:41 44° ENE 22:27:13 10° N visible
09 May 3.6 00:00:15 21° W 00:00:38 21° W 00:04:16 10° NW visible
09 May 3.8 21:25:41 10° E 21:28:12 15° ENE 21:30:51 10° NNE visible
09 May 1.8 23:04:34 58° SSW 23:05:22 72° WSW 23:10:09 10° NNW visible
